This demonstration page uses our WeatherBlox Daily Observations layout. Learn more.

Left ArrowRight Arrow

Hourly Observations for December 13, 2019

Temp ( °F °C ) Dew Point ( °F °C ) Humidity (%) Winds ( mph kmh ) Pressure ( in mb ) Visibility ( mi km ) Precip ( " mm )
12:51 am 00:51 Clear 42 5.6 40 4.4 92 92 ENE 5 7 30.14 1021 10 16 N/A
1:51 am 01:51 Clear 42 5.6 40 4.4 92 92 N N/A 30.14 1021 10 16 N/A
2:51 am 02:51 Clear 40 4.4 38 3.3 93 93 SSE 5 7 30.14 1021 10 16 N/A
3:51 am 03:51 Clear 39 3.9 38 3.3 96 96 E 5 7 30.14 1021 10 16 N/A
4:51 am 04:51 Clear 39 3.9 38 3.3 96 96 E 5 7 30.14 1021 10 16 N/A
5:51 am 05:51 Clear 39 3.9 37 2.8 93 93 ESE 6 9 30.15 1021 10 16 N/A
6:51 am 06:51 Clear 38 3.3 37 2.8 97 97 N N/A 30.18 1022 10 16 N/A
7:51 am 07:51 Sunny 40 4.4 38 3.3 93 93 ESE 3 6 30.21 1023 10 16 N/A
8:51 am 08:51 Sunny 43 6.1 40 4.4 89 89 N N/A 30.20 1023 10 16 N/A
9:51 am 09:51 Sunny 48 8.9 42 5.6 80 80 ESE 7 11 30.20 1023 10 16 N/A
10:51 am 10:51 Sunny 53 11.7 43 6.1 69 69 SE 6 9 30.18 1022 10 16 N/A
11:51 am 11:51 Sunny 57 13.9 42 5.6 58 58 N N/A 30.13 1020 10 16 N/A
12:51 pm 12:51 Sunny 59 15 42 5.6 54 54 N N/A 30.09 1019 10 16 N/A
1:51 pm 13:51 Sunny 62 16.7 40 4.4 44 44 N N/A 30.04 1017 10 16 N/A
2:51 pm 14:51 Sunny 64 17.8 41 5 43 43 N N/A 30.01 1016 10 16 N/A
3:51 pm 15:51 Sunny 65 18.3 40 4.4 40 40 N N/A 29.98 1015 10 16 N/A
4:51 pm 16:51 Sunny 64 17.8 42 5.6 45 45 WNW 3 6 29.97 1015 10 16 N/A
5:51 pm 17:51 Clear 56 13.3 43 6.1 62 62 NNW 6 9 29.99 1016 10 16 N/A
6:51 pm 18:51 Clear 53 11.7 42 5.6 66 66 NW 5 7 30.00 1016 10 16 N/A
7:51 pm 19:51 Clear 49 9.4 43 6.1 80 80 NW 5 7 30.00 1016 10 16 N/A
8:51 pm 20:51 Clear 48 8.9 43 6.1 83 83 E 5 7 29.99 1016 10 16 N/A
9:51 pm 21:51 Clear 47 8.3 42 5.6 83 83 E 5 7 29.98 1015 10 16 N/A
10:51 pm 22:51 Clear 46 7.8 41 5 83 83 E 5 7 29.98 1015 10 16 N/A
11:51 pm 23:51 Clear 43 6.1 40 4.4 89 89 E 5 7 29.98 1015 10 16 N/A

Powered by AerisWeather